London, United Kingdom

7:37 PM GMT on February 06, 2016 (GMT +0000)
Heathrow

Weather History for EGLL - May, 2013

Change the Weather History Date:

Wednesday, May 8, 2013

  Actual Average Record
Temperature  
Mean Temperature 57 °F -  
Max Temperature 64 °F 63 °F 75 °F (2008)
Min Temperature 50 °F 48 °F 41 °F (2001)
Degree Days  
Heating Degree Days 8    
Growing Degree Days 7 (Base 50)    
Moisture  
Dew Point 49 °F    
Average Humidity 73    
Maximum Humidity 94    
Minimum Humidity 48    
Precipitation  
Precipitation 0.02 in - - ()
Sea Level Pressure  
Sea Level Pressure 29.74 in    
Wind  
Wind Speed 8 mph ()    
Max Wind Speed 18 mph    
Max Gust Speed -    
Visibility 6.1 miles    
Events Rain    
Averages and records for this station are not official NWS values.
T = Trace of Precipitation, MM = Missing Value Source: Averaged Metar Reports

Daily Weather History Graph

Daily Weather History Graph

Search for Another Location

Airport or City:

Trip Planner

Search our weather history database for the weather conditions in past years. The results will help you decide how hot, cold, wet, or windy it might be!

Date:

Astronomy

May. 08, 2013 Rise Set
Actual Time 5:21 AM BST 8:36 PM BST
Civil Twilight 4:41 AM BST 9:16 PM BST
Nautical Twilight 3:48 AM BST 10:09 PM BST
Astronomical Twilight 2:38 AM BST 11:21 PM BST
Moon 4:31 AM BST (5/8) 7:13 PM BST (5/8)
Length of Visible Light 16h 35m
Length of Day
15h 15m
Waning Crescent, 2% of the Moon is Illuminated
May 8
Waning Crescent
May 10
New
May 18
First Quarter
May 25
Full
May 31
Last Quarter

Hourly Weather History & Observations

Time (BST) Temp. Dew Point Humidity Pressure Visibility Wind Dir Wind Speed Gust Speed Precip Events Conditions
12:20 AM 53.6 °F 42.8 °F 67% 29.86 in - East 5.8 mph - N/A   Clear
12:50 AM 55 °F 44 °F 58% 29.85 in 11 mi East 3.5 mph - -  
12:50 AM 55.4 °F 44.6 °F 67% 29.86 in - East 5.8 mph - N/A   Clear
1:20 AM 53.6 °F 44.6 °F 72% 29.83 in 6.2 mi East 4.6 mph - N/A   Unknown
1:50 AM 53.6 °F 41.0 °F 62% 29.83 in 6.2 mi East 5.8 mph - N/A   Unknown
2:20 AM 53.6 °F 44.6 °F 72% 29.80 in 6.2 mi East 6.9 mph - N/A   Unknown
2:50 AM 55.4 °F 46.4 °F 72% 29.80 in - East 6.9 mph - N/A   Clear
3:20 AM 55.4 °F 46.4 °F 72% 29.77 in 5.0 mi East 6.9 mph - N/A   Unknown
3:50 AM 56 °F 47 °F 62% 29.76 in 5 mi East 3.5 mph - -   Light Haze
3:50 AM 55.4 °F 46.4 °F 72% 29.77 in 5.0 mi East 8.1 mph - N/A   Unknown
4:20 AM 55.4 °F 48.2 °F 77% 29.77 in 4.3 mi ESE 5.8 mph - N/A Rain Light Rain
4:50 AM 55.4 °F 48.2 °F 77% 29.74 in 5.6 mi SE 4.6 mph - N/A Rain Light Rain
5:20 AM 55.4 °F 46.4 °F 72% 29.74 in 6.2 mi South 6.9 mph - N/A   Scattered Clouds
5:50 AM 55.4 °F 48.2 °F 77% 29.74 in 5.6 mi SSE 5.8 mph - N/A Rain Light Rain
6:20 AM 53.6 °F 48.2 °F 82% 29.71 in 4.3 mi SE 6.9 mph - N/A Rain Light Rain
6:50 AM 54 °F 51 °F 84% 29.73 in 4 mi East 3.5 mph - - Rain Light Rain
6:50 AM 53.6 °F 50.0 °F 88% 29.71 in 3.1 mi SSE 6.9 mph - N/A Rain Light Rain
7:20 AM 55.4 °F 46.4 °F 72% 29.71 in - SSE 6.9 mph - N/A   Haze
7:50 AM 55.4 °F 53.6 °F 94% 29.71 in 2.8 mi SSE 8.1 mph - N/A   Haze
8:20 AM 55.4 °F 53.6 °F 94% 29.71 in 2.8 mi SSE 9.2 mph - N/A   Light Drizzle
8:50 AM 57.2 °F 55.4 °F 94% 29.71 in 3.7 mi South 9.2 mph - N/A   Mostly Cloudy
9:20 AM 57.2 °F 55.4 °F 94% 29.71 in 6.2 mi SSW 10.4 mph - N/A   Mostly Cloudy
9:50 AM 59 °F 55 °F 82% 29.71 in 25 mi East 3.5 mph - - Rain Drizzle
9:50 AM 57.2 °F 53.6 °F 88% 29.71 in 6.2 mi SSW 9.2 mph - N/A   Mostly Cloudy
10:20 AM 59.0 °F 53.6 °F 82% 29.71 in 6.2 mi SW 15.0 mph - N/A   Mostly Cloudy
10:50 AM 59.0 °F 51.8 °F 77% 29.71 in 6.2 mi SW 12.7 mph - N/A   Mostly Cloudy
11:20 AM 59.0 °F 50.0 °F 72% 29.71 in 6.2 mi SW 17.3 mph - N/A   Mostly Cloudy
11:50 AM 59.0 °F 50.0 °F 72% 29.71 in 6.2 mi SW 15.0 mph - N/A   Mostly Cloudy
12:20 PM 59.0 °F 50.0 °F 72% 29.71 in 6.2 mi SW 13.8 mph - N/A   Mostly Cloudy
12:50 PM 61 °F 50 °F 58% 29.71 in 22 mi East 3.5 mph - -   Scattered Clouds
12:50 PM 59.0 °F 50.0 °F 72% 29.71 in 6.2 mi SW 16.1 mph - N/A   Mostly Cloudy
1:20 PM 59.0 °F 50.0 °F 72% 29.71 in 6.2 mi SSW 12.7 mph - N/A   Mostly Cloudy
1:50 PM 59.0 °F 50.0 °F 72% 29.71 in 6.2 mi SW 17.3 mph - N/A   Mostly Cloudy
2:20 PM 59.0 °F 48.2 °F 67% 29.71 in 6.2 mi SW 15.0 mph - N/A   Mostly Cloudy
2:50 PM 60.8 °F 48.2 °F 63% 29.71 in 6.2 mi WSW 17.3 mph - N/A   Scattered Clouds
3:20 PM 62.6 °F 48.2 °F 59% 29.71 in 6.2 mi SW 17.3 mph - N/A   Scattered Clouds
3:50 PM 63 °F 48 °F 48% 29.71 in 22 mi East 3.5 mph - -   Mostly Cloudy
3:50 PM 62.6 °F 48.2 °F 59% 29.71 in 6.2 mi SW 16.1 mph - N/A   Mostly Cloudy
4:20 PM 64.4 °F 48.2 °F 56% 29.71 in 6.2 mi SW 16.1 mph - N/A   Scattered Clouds
4:50 PM 62.6 °F 48.2 °F 59% 29.71 in 6.2 mi SW 18.4 mph - N/A   Mostly Cloudy
5:20 PM 60.8 °F 48.2 °F 63% 29.71 in 6.2 mi SW 16.1 mph - N/A   Mostly Cloudy
5:50 PM 59.0 °F 50.0 °F 72% 29.71 in 6.2 mi SW 16.1 mph - N/A   Mostly Cloudy
6:20 PM 59.0 °F 50.0 °F 72% 29.71 in 6.2 mi SW 16.1 mph - N/A   Mostly Cloudy
6:50 PM 58 °F 51 °F 70% 29.71 in 28 mi East 3.5 mph - -   Mostly Cloudy
6:50 PM 59.0 °F 51.8 °F 77% 29.71 in 6.2 mi SW 13.8 mph - N/A   Mostly Cloudy
7:20 PM 57.2 °F 51.8 °F 82% 29.71 in 6.2 mi SW 15.0 mph - N/A Rain Light Rain Showers
7:50 PM 57.2 °F 51.8 °F 82% 29.71 in 6.2 mi SW 13.8 mph - N/A   Mostly Cloudy
8:20 PM 57.2 °F 51.8 °F 82% 29.74 in 6.2 mi SW 15.0 mph - N/A Rain Light Rain
8:50 PM 55.4 °F 48.2 °F 77% 29.74 in 6.2 mi West 18.4 mph - N/A   Mostly Cloudy
9:20 PM 53.6 °F 46.4 °F 77% 29.77 in 6.2 mi West 12.7 mph - N/A   Scattered Clouds
9:50 PM 53 °F 45 °F 67% 29.79 in 19 mi East 3.5 mph - -   Scattered Clouds
9:50 PM 53.6 °F 44.6 °F 72% 29.77 in 6.2 mi West 13.8 mph - N/A   Partly Cloudy
10:20 PM 51.8 °F 44.6 °F 76% 29.80 in - West 13.8 mph - N/A   Clear
10:50 PM 50.0 °F 44.6 °F 82% 29.80 in - West 13.8 mph - N/A   Clear
11:20 PM 50.0 °F 42.8 °F 76% 29.80 in - West 8.1 mph - N/A   Clear
11:50 PM 50.0 °F 42.8 °F 76% 29.83 in 6.2 mi WSW 6.9 mph - N/A   Partly Cloudy